Weather Roundup
Issued by NWS Chicago, IL

Home | Current Version | Previous Version | Graphics & Text | Print | Product List | Glossary On
Versions: 1 2 3 4 5 6 7 8 9 10 11 12 13 14 15 16 17 18 19 20 21 22 23 24 25 26 27 28 29 30 31 32 33 34 35 36 37 38 39 40 41 42 43 44 45 46 47 48 49 50
000
NZUS59 KLOT 031603
HRRLOT

CHICAGO AREA WEATHER ROUNDUP
NATIONAL WEATHER SERVICE CHICAGO/ROMEOVILLE IL
1100 AM CDT TUE MAY 03 2016

NOTE: "FAIR" INDICATES FEW OR NO CLOUDS BELOW 12,000 FEET WITH NO
SIGNIFICANT WEATHER AND/OR OBSTRUCTIONS TO VISIBILITY.

* THESE STATIONS ARE NOT UNDER NWS QUALITY CONTROL. THEY ALSO MAY NOT
  REPORT WEATHER SUCH AS PRECIPITATION OR FOG.

ILZ005-006-012>014-019>023-031700-
NORTHEAST ILLINOIS

CITY           SKY/WX    TMP DP  RH WIND       PRES   REMARKS
OHARE          MOSUNNY   61  40  45 VRB7      29.93F
MIDWAY         MOSUNNY   62  36  37 W8        29.94F
AURORA         SUNNY     63  47  55 NW10      29.96F
LANSING*       SUNNY     61  36  39 NW5       29.95F
WAUKEGAN       SUNNY     63  41  44 VRB5      29.91F
DUPAGE AIRPORT SUNNY     63  42  46 NW7       29.94F
WHEELING       MOSUNNY   63  40  42 VRB5      29.94F
MORRIS*        SUNNY     62  45  53 N6        29.95F
$$

WIZ051-052-058>065-066-070>072-031700-
SOUTHEAST WISCONSIN

CITY           SKY/WX    TMP DP  RH WIND       PRES   REMARKS
MILWAUKEE      MOSUNNY   65  36  34 NW12      29.90F
KENOSHA*       SUNNY     64  42  44 VRB7      29.91F
RACINE*        SUNNY     64  39  39 W9        29.92F
BURLINGTON     SUNNY     63  38  38 W13       29.92S
WAUKESHA       SUNNY     61  39  44 NW12      29.91F
$$

INZ001>003-010>013-019-020-031700-
NORTHWEST INDIANA

CITY           SKY/WX    TMP DP  RH WIND       PRES   REMARKS
GARY*          SUNNY     63  41  45 NW5       29.95F
MICHIGAN CITY* NOT AVBL
RENSSELAER*    NOT AVBL
VALPARAISO     SUNNY     61  38  42 VRB5      29.96F
$$

LMZ740>746-031700-
SOUTHERN LAKE MICHIGAN

STATION/POSITION TIME  SKY/WX   TEMP WIND        PRES    VSBY
                                AIR  DIR/SP/G
                 (UTC)          (F)  (DEG/KT/KT) (MB)    (MI)
HARRISON CRIB    1500            58  160/  2/  2   N/A
BURNHAM HARBOR   1600            63  300/  3/  8   N/A
CALUMET HARBOR   1500            59  290/  6/  8 1013.9F
BURNS HARBOR     1500            53   CALM  /  1 1015.2F
MICHIGAN CITY    1500            47  220/  4/  5   N/A
$$

ABBREVIATIONS USED IN REMARKS
   TC - TEMPERATURE IN CELSIUS
  WCI - WIND CHILL INDEX
   HX - HEAT INDEX
  VSB - VISIBILITY
$$




USA.gov is the U.S. government's official web portal to all federal, state and local government web resources and services.